Wind_Speed
10 10 10 10 10 10 10 10 10 11 11 11 11 11 11 11 11 12 12 12 13 14 14 15 15 15 15 14 13 13 15 15 14 13 13 13 11 10 10 9 11 14 15 12 12 14 13 13 12 11 9 9 9 5 2 4 5 4 2 3 6 6 7 7 7 7 5 7 5 4 4 3 6 6 7 7 4 7 7 6 5 6 6 3 5 12 12 15
9 9 9 10 10 10 10 10 11 11 11 11 11 11 11 12 12 12 12 12 13 14 14 15 15 15 15 13 11 12 15 14 14 16 15 13 10 11 12 11 12 14 12 10 12 12 11 11 12 10 8 8 6 2 2 3 4 5 4 5 5 6 8 7 8 7 6 6 5 4 3 2 5 6 7 5 4 6 5 6 7 6 5 7 6 14 12 14
9 9 9 9 10 10 10 10 11 11 11 11 12 12 12 12 13 13 13 13 13 14 14 15 15 15 13 10 9 10 12 13 13 11 9 11 10 9 8 8 9 10 10 11 12 12 12 13 13 12 10 9 5 3 4 3 4 4 3 5 5 8 10 9 7 6 5 5 4 4 3 3 4 5 6 6 5 5 4 5 6 6 3 8 8 15 14 15
9 8 9 9 10 10 10 11 11 11 11 12 12 12 13 13 13 13 13 13 13 14 14 15 15 14 10 8 8 9 10 11 6 3 6 4 4 5 5 6 7 8 9 11 13 14 14 14 14 12 10 10 7 4 2 6 3 2 4 5 5 8 10 10 8 6 6 5 4 3 2 3 2 2 7 8 4 3 5 6 7 8 8 11 11 14 15 14
10 9 9 9 10 11 11 11 11 11 12 12 12 13 13 13 13 13 13 13 13 13 14 14 14 11 8 7 7 7 8 5 3 8 7 3 1 3 5 5 7 7 7 10 13 14 14 13 12 11 10 9 5 2 3 5 2 2 6 6 5 8 9 10 9 3 3 4 3 4 3 3 1 2 5 8 4 3 6 8 10 11 10 11 11 12 13 12
10 10 10 10 10 11 11 12 12 12 12 12 13 13 14 14 13 13 12 12 12 12 13 13 11 9 7 8 6 5 7 2 6 6 5 2 2 3 5 5 7 7 7 11 12 13 12 11 11 9 8 6 2 3 4 3 4 2 6 5 5 9 9 10 8 0 3 5 5 6 3 1 1 1 2 3 5 7 9 12 13 13 11 9 9 9 11 12
11 11 11 11 11 12 12 12 12 12 12 12 13 13 14 14 14 13 12 11 11 12 12 10 8 7 7 8 6 4 9 3 7 6 5 2 1 3 6 5 7 7 7 11 11 11 9 9 11 8 9 6 2 3 4 2 6 6 5 4 5 8 9 9 7 3 5 7 5 3 2 4 5 3 1 0 7 12 10 12 13 13 12 11 10 10 11 11
12 11 11 11 12 12 12 13 13 13 13 13 13 13 14 14 14 13 11 10 11 11 9 7 6 7 8 7 5 6 7 1 8 5 3 2 1 4 6 5 7 8 8 10 10 10 9 9 8 6 8 7 4 4 3 4 3 6 5 3 6 7 10 7 5 5 3 4 2 3 3 5 5 5 2 2 6 13 11 11 12 12 12 11 10 9 10 10
12 12 12 12 12 12 13 13 13 13 13 13 13 13 14 13 13 12 10 9 10 9 6 6 6 6 8 6 7 6 1 7 8 4 4 4 2 4 6 6 8 9 9 10 10 11 9 8 7 8 8 8 4 5 5 4 2 6 4 3 6 7 8 5 3 5 1 2 3 3 5 5 4 5 3 1 3 9 13 12 10 9 9 9 9 8 8 8
12 12 12 12 12 12 12 12 13 13 13 13 13 13 13 13 13 11 9 8 8 7 5 5 5 6 7 6 8 4 5 7 7 6 5 6 5 4 6 7 8 9 10 9 10 11 10 8 10 8 8 9 5 3 4 4 5 4 3 2 3 4 5 4 3 3 1 2 4 3 4 5 5 3 3 3 5 9 13 12 9 7 7 7 9 9 7 7
13 13 13 13 13 13 12 12 13 13 13 13 12 13 13 12 12 9 7 7 6 5 4 5 5 6 7 8 9 2 4 2 4 6 5 5 5 5 6 6 7 9 10 9 9 10 10 9 8 7 6 7 6 5 4 5 4 4 4 4 4 4 4 3 1 2 1 1 4 2 1 2 2 2 4 1 7 13 9 9 10 6 6 7 7 7 7 7
13 13 13 13 13 13 12 12 12 13 12 12 12 12 12 11 10 8 6 6 5 4 3 5 4 6 8 9 8 1 3 2 3 4 4 5 5 4 3 5 7 9 10 9 8 8 10 8 8 9 7 9 8 7 7 7 6 7 4 7 6 7 4 2 1 2 1 1 5 3 3 1 4 4 5 5 9 17 8 7 12 7 7 7 6 5 6 4
13 13 14 14 14 13 13 12 12 12 11 11 11 11 11 10 8 6 6 5 4 4 4 4 4 5 7 7 3 2 1 2 3 2 4 5 5 3 2 4 7 8 9 10 8 6 7 6 9 12 10 10 8 7 9 7 9 9 8 8 5 7 7 5 2 2 3 2 4 3 2 2 4 6 7 5 6 17 12 8 11 8 5 6 7 5 6 3
14 14 14 14 14 13 13 12 11 11 11 10 10 10 9 8 6 5 5 4 3 4 4 5 5 4 6 6 1 3 2 2 2 4 5 5 5 4 3 4 6 7 7 9 9 8 7 6 9 11 9 10 9 9 11 9 8 8 9 7 5 3 5 7 6 4 3 4 5 3 4 3 4 7 6 2 2 9 12 9 10 7 5 6 5 6 7 5
15 15 15 15 14 13 12 12 11 10 9 9 9 8 7 5 4 4 4 4 4 5 5 7 6 4 7 6 3 4 6 4 6 7 5 6 6 5 5 5 6 7 6 8 9 7 6 8 9 8 9 11 9 8 9 8 7 7 5 5 6 1 7 7 6 4 1 2 6 4 4 3 3 7 8 5 6 5 10 7 8 10 7 7 6 7 8 6
15 15 15 15 14 13 12 11 10 9 8 8 7 6 5 3 3 3 3 3 4 5 4 5 7 8 7 2 5 5 8 8 8 7 5 6 7 4 6 5 5 7 6 8 8 7 7 8 8 8 9 10 8 7 7 7 6 6 4 5 6 0 8 7 5 6 1 1 5 6 3 4 1 7 9 9 7 7 10 6 7 11 9 9 9 8 8 7
16 16 16 14 14 12 11 10 9 8 7 6 5 4 3 2 3 2 2 3 3 4 6 8 7 8 7 2 3 7 9 6 6 8 6 6 7 3 5 5 6 7 7 8 9 8 8 7 6 7 8 7 6 7 6 6 5 2 2 5 4 2 4 6 5 5 3 4 4 5 6 6 6 8 10 12 8 7 8 9 8 10 8 8 9 9 9 8
16 16 15 14 13 11 10 9 8 7 6 5 4 3 2 2 2 2 2 2 1 4 9 11 10 6 6 7 5 7 9 6 5 6 5 5 6 3 5 7 5 6 7 7 8 9 7 6 6 7 7 6 7 6 6 7 6 6 6 6 4 4 3 2 6 7 7 4 4 8 9 7 7 3 11 13 8 6 5 11 9 8 9 9 9 8 7 7
16 15 15 13 12 10 9 8 6 5 5 4 3 3 1 0 1 3 7 5 4 5 4 6 8 2 3 5 3 7 8 6 5 5 5 6 6 6 8 7 5 7 8 6 8 9 7 6 6 7 7 7 9 7 8 12 8 8 8 8 7 5 6 5 3 5 3 2 6 9 8 7 9 3 11 12 8 5 3 8 9 6 6 7 7 5 8 8
15 15 14 12 10 9 7 6 5 5 7 7 3 1 2 3 3 3 8 9 9 10 6 7 15 6 3 7 6 8 6 5 6 6 6 6 6 8 9 7 6 7 8 7 7 9 7 7 7 7 9 9 12 10 9 11 7 7 8 8 9 8 8 7 2 6 4 3 6 7 8 8 9 6 7 12 10 7 3 4 7 8 8 6 5 5 9 10
15 14 13 10 8 7 6 5 6 8 11 10 3 5 3 2 1 2 5 9 14 16 12 7 13 7 3 4 4 4 5 6 6 6 6 7 8 8 6 7 8 6 8 10 8 8 7 8 8 10 13 11 14 13 6 9 7 6 9 8 9 7 8 6 6 8 5 2 5 5 8 8 7 9 5 7 10 9 4 2 5 5 8 7 5 6 8 9
14 13 12 8 6 5 4 5 8 10 12 10 5 9 7 7 6 4 3 6 12 17 13 8 7 6 3 1 2 2 6 6 6 7 8 7 9 8 6 7 8 6 8 9 8 7 7 9 12 13 13 11 15 12 6 8 9 8 8 8 8 7 10 7 6 7 5 2 5 3 6 8 7 7 7 4 0 4 5 2 5 4 4 7 6 6 9 9
14 12 10 6 4 3 3 5 8 10 13 11 9 12 9 8 7 8 7 7 6 13 12 9 7 7 7 6 4 5 8 7 6 8 9 7 9 7 6 7 8 8 8 9 9 7 6 9 12 12 11 12 15 11 6 8 9 7 7 7 8 9 10 4 5 6 7 5 3 4 5 9 7 2 4 7 7 7 5 3 1 4 4 4 3 4 9 10
12 10 7 4 3 3 5 6 8 10 15 14 15 18 14 11 10 10 7 8 4 9 10 9 8 9 8 4 5 9 10 6 5 8 10 8 8 6 6 7 7 9 9 10 11 9 11 10 5 6 9 11 12 9 7 8 7 8 9 9 9 11 13 7 1 5 8 7 3 1 5 8 1 5 4 3 5 5 5 5 4 3 3 2 3 2 4 6
10 8 4 3 4 6 7 6 8 10 13 14 16 18 16 12 10 9 6 7 4 8 8 8 7 8 8 5 5 8 8 6 6 9 12 9 10 6 5 6 5 8 10 11 10 8 12 14 9 8 9 9 8 6 7 8 6 8 10 11 11 13 15 11 7 5 4 5 5 3 5 5 4 9 2 2 5 6 6 4 1 0 0 1 1 5 4 3
8 6 3 5 7 9 8 4 7 12 12 13 13 11 11 9 7 7 5 6 4 7 7 8 6 5 7 7 7 7 8 7 3 8 12 10 11 6 5 4 4 8 8 6 7 6 8 12 9 7 8 9 10 8 9 9 8 8 6 10 13 11 8 9 8 8 7 3 6 6 5 4 2 7 5 3 6 7 4 2 2 3 4 3 3 3 5 3
6 3 4 8 10 12 6 1 3 10 10 7 6 5 4 4 4 5 5 5 4 7 7 7 5 6 7 7 10 7 3 5 8 8 9 9 9 6 6 6 4 7 6 4 6 4 7 11 7 3 5 8 9 8 9 9 8 8 4 8 13 8 4 9 10 8 8 6 6 9 5 5 2 4 4 2 4 7 5 5 4 4 5 6 5 4 4 6
3 3 6 9 12 12 3 6 5 5 2 3 3 2 1 1 3 3 5 3 3 5 6 6 3 4 6 7 12 6 4 6 6 7 9 9 9 7 6 8 7 8 6 5 6 2 6 11 10 8 8 7 7 8 11 9 9 10 5 7 10 10 9 11 10 7 8 8 5 5 5 4 2 2 3 3 3 4 7 7 6 5 3 3 6 6 4 6
1 5 8 9 12 11 6 7 8 7 4 3 1 2 0 2 4 4 5 3 4 4 3 5 4 5 7 8 12 9 4 5 3 4 11 10 9 8 6 6 8 11 7 6 10 5 2 5 7 9 9 7 8 11 12 9 8 9 8 9 6 9 10 9 8 7 8 6 7 8 7 5 1 4 5 3 3 2 1 3 2 3 4 1 2 4 5 6
1 7 9 11 12 7 6 7 8 5 5 3 2 3 3 5 4 5 5 2 5 5 4 4 6 9 10 9 10 10 9 7 2 4 8 6 8 8 7 7 6 10 8 8 11 12 9 6 5 6 7 8 10 12 10 7 8 9 7 8 8 8 7 7 7 6 6 5 7 9 11 11 4 2 1 2 3 2 3 1 2 5 7 4 1 2 4 5
4 7 11 15 11 5 5 5 4 2 3 3 4 5 5 4 4 6 4 1 3 6 7 6 8 10 12 11 9 8 10 8 6 6 6 4 6 8 6 7 6 6 8 8 10 12 12 9 6 5 7 10 11 9 5 3 6 8 6 6 7 6 5 5 5 5 5 5 7 8 11 11 3 1 3 6 7 3 3 1 3 7 6 5 3 2 1 3
5 7 12 16 10 7 7 4 6 3 3 4 6 5 5 4 6 6 2 2 3 6 6 7 9 10 12 12 9 9 9 8 9 8 7 6 6 7 7 7 6 6 6 6 8 10 12 11 10 9 9 9 10 7 4 4 6 7 6 6 6 4 3 3 4 5 4 6 8 5 5 7 3 3 5 8 8 4 4 1 1 7 6 4 4 5 4 1
5 7 12 14 9 9 9 7 7 5 4 6 7 4 5 5 4 5 3 3 2 5 5 7 10 10 11 10 9 10 7 7 9 8 8 8 6 8 9 9 8 8 6 5 7 7 8 11 13 11 9 9 9 7 6 7 8 9 7 5 5 4 4 5 5 5 5 6 7 4 5 5 2 4 4 8 7 1 2 1 2 9 7 4 4 5 6 7
4 6 8 9 10 11 11 8 6 6 6 7 6 4 7 4 3 8 4 3 3 3 4 7 10 10 10 10 7 9 6 6 9 7 8 8 7 6 8 11 11 9 7 6 7 6 6 5 10 10 8 12 13 10 10 9 7 8 7 5 6 5 4 6 5 6 6 5 5 2 2 4 3 3 2 6 4 2 3 6 7 8 6 4 4 4 5 7
5 7 7 6 11 12 11 9 7 7 7 6 5 6 6 2 2 8 3 4 2 4 5 6 9 9 9 9 8 10 7 5 7 7 6 6 7 5 5 8 10 5 6 5 3 5 9 6 6 9 7 11 14 11 10 12 10 6 6 7 6 4 3 5 7 9 8 6 4 3 3 4 2 5 4 3 1 1 5 7 9 9 6 5 3 4 5 6
5 7 7 9 12 11 10 10 7 7 7 5 5 5 3 2 3 4 4 4 3 2 5 5 6 7 7 6 7 10 8 5 5 6 6 6 8 4 3 3 4 1 5 4 4 5 7 6 2 8 8 9 9 9 9 9 7 4 5 6 5 7 7 6 7 8 8 7 4 3 5 5 3 4 1 4 3 3 6 4 7 11 8 6 5 3 4 6
5 6 8 11 12 10 9 9 8 8 7 5 5 4 3 4 4 5 3 4 7 3 2 4 5 5 6 6 5 8 8 6 5 4 5 6 6 3 1 3 3 4 8 7 5 5 4 8 7 3 5 6 7 9 9 12 8 5 6 4 5 7 8 5 4 6 6 6 3 4 2 1 1 3 2 2 4 3 4 4 5 10 8 7 6 1 2 3
7 9 11 9 9 10 9 9 8 7 6 6 6 7 6 3 2 4 3 4 6 4 5 3 3 4 5 4 4 8 8 5 6 4 5 5 2 2 1 2 2 1 6 7 4 4 4 7 8 4 7 8 8 7 9 10 8 7 8 8 6 6 5 3 4 4 6 4 1 5 6 1 2 1 2 2 3 7 9 8 8 8 6 5 7 5 2 4
9 10 7 6 9 9 10 9 8 6 6 6 5 5 6 2 2 2 2 3 5 4 4 4 1 4 5 4 3 6 8 6 5 5 4 3 3 1 1 1 1 2 2 5 5 5 5 6 6 5 10 9 7 6 6 7 7 8 8 7 6 5 5 4 4 4 5 3 1 4 5 1 2 3 5 5 4 6 8 7 7 9 7 3 6 6 5 7
8 7 2 9 11 10 10 8 6 5 6 5 3 3 5 2 3 2 2 3 5 3 3 5 3 3 3 4 5 3 7 8 5 4 3 5 6 3 2 2 3 2 3 4 5 5 4 4 6 7 8 6 3 4 6 6 6 8 7 7 6 5 5 5 6 5 4 4 2 0 2 2 4 5 6 4 2 2 4 4 3 4 4 1 6 7 5 8
8 6 3 10 12 12 10 7 5 5 5 6 5 3 2 5 3 1 0 3 5 2 2 7 5 2 5 3 2 4 4 5 6 4 2 3 4 1 6 6 4 5 5 5 5 4 4 4 5 7 6 6 6 4 5 7 8 7 5 6 5 5 5 5 6 6 5 6 3 3 2 2 3 3 2 1 2 1 3 3 2 3 3 1 6 10 6 8
8 3 5 10 12 12 8 5 5 7 5 4 4 2 3 4 5 2 1 3 5 2 2 5 4 4 5 2 3 5 4 3 6 3 4 4 2 6 4 4 5 6 6 7 3 6 6 6 6 7 7 9 12 11 9 10 11 10 8 7 7 6 7 6 5 5 5 5 3 3 3 1 1 3 1 2 4 5 5 4 1 2 4 4 5 10 8 9
7 2 7 10 12 11 7 5 5 7 2 0 2 3 1 4 3 2 0 1 3 2 1 2 2 3 4 3 4 5 4 4 5 3 4 5 4 9 4 4 6 6 5 5 4 7 6 5 5 7 8 10 14 14 13 12 9 8 7 7 8 8 9 8 7 7 5 3 5 3 1 2 2 5 3 1 1 5 4 1 1 3 2 2 3 7 6 9
7 2 7 9 11 10 7 4 4 5 2 2 3 0 0 4 4 4 4 3 3 3 2 2 2 2 3 3 6 6 4 3 4 4 5 5 4 6 3 4 5 6 4 5 5 6 5 4 3 6 7 7 9 9 8 9 10 7 8 9 10 11 12 11 8 7 4 3 4 2 0 1 4 3 4 5 3 7 1 3 3 3 0 2 3 4 4 7
6 2 5 7 10 9 7 5 6 5 1 1 4 4 4 3 1 6 6 4 5 6 4 3 2 4 5 3 4 5 4 4 4 3 5 5 1 4 4 4 4 4 5 7 6 6 5 5 4 6 7 6 5 6 6 7 7 7 10 12 11 12 14 11 6 5 2 2 3 3 2 2 4 3 4 8 4 6 4 6 7 7 4 2 4 5 5 6
5 2 3 7 8 7 6 4 6 5 1 2 3 1 3 2 5 1 5 2 2 5 6 3 3 5 6 4 6 7 4 5 5 3 4 6 3 2 5 1 5 1 7 5 4 6 5 6 7 7 8 8 8 10 9 9 9 10 13 17 15 16 17 12 8 5 0 1 2 5 5 3 6 5 6 1 1 4 5 8 7 7 6 4 5 5 2 6
5 2 1 2 4 5 4 4 4 3 3 2 1 1 5 4 3 3 3 1 3 4 5 3 3 6 6 5 7 7 5 6 6 7 7 6 7 5 2 4 6 4 8 1 7 6 5 7 9 11 13 12 13 14 13 13 14 11 11 17 19 18 17 15 12 4 4 5 5 5 8 6 7 5 7 6 3 4 2 6 5 4 2 4 5 4 4 7
4 2 3 2 2 2 1 1 4 5 3 1 2 1 4 6 2 1 1 2 3 3 3 3 0 4 7 6 6 7 8 8 7 7 8 6 7 8 6 10 8 8 10 6 8 5 5 7 9 12 15 15 16 16 13 13 15 12 12 16 19 18 16 17 17 5 4 5 5 8 12 7 1 2 5 5 2 3 4 1 3 4 2 6 5 5 7 7
5 4 4 3 4 4 4 3 4 6 4 3 2 2 4 5 4 3 4 4 4 3 4 6 4 5 7 7 6 7 8 8 5 4 8 8 9 8 6 10 10 4 5 6 4 3 4 5 8 11 14 16 18 18 16 15 15 14 16 19 18 18 17 17 18 10 7 11 7 6 9 6 6 4 6 6 3 2 4 2 2 3 3 5 3 3 5 7
6 4 5 5 4 4 4 4 4 5 1 2 1 1 3 5 6 6 4 4 6 6 5 9 9 9 9 9 7 7 7 8 7 7 9 10 8 8 6 7 8 8 8 8 5 4 4 5 8 9 11 13 15 17 18 18 17 18 19 20 20 19 18 16 14 11 11 12 8 6 4 6 6 5 5 4 2 2 4 4 4 4 0 3 3 3 4 5
11 7 7 7 4 2 3 3 3 5 1 2 1 4 4 4 7 7 4 2 6 7 6 9 11 9 10 10 7 8 11 10 9 10 10 10 9 8 8 7 9 11 11 8 7 6 6 7 8 9 9 10 12 16 18 18 18 20 21 21 19 16 14 12 8 9 9 8 6 5 4 4 6 8 6 3 4 5 6 7 4 3 4 3 4 6 5 4
15 11 9 8 4 1 3 3 2 2 3 4 4 5 5 5 7 7 4 3 3 5 7 8 10 8 8 9 8 11 12 11 11 11 10 11 12 12 11 11 13 12 10 9 8 7 7 7 7 8 8 9 13 16 17 16 15 14 14 12 9 9 9 7 8 12 11 8 5 4 4 3 3 6 7 6 6 6 7 7 5 4 5 6 5 3 1 5
Wind_Direction
355 359 1 0 359 356 352 348 345 344 346 344 339 333 327 320 315 313 314 314 314 314 316 320 321 321 322 322 319 316 313 310 303 277 252 260 267 277 292 276 271 277 283 291 277 275 280 273 272 272 276 275 259 254 285 280 286 302 330 27 48 51 48 36 29 22 37 82 94 119 124 115 118 148 143 117 108 103 96 89 71 23 8 330 157 147 159 160
351 355 354 352 350 348 348 344 342 344 345 344 338 333 327 319 315 312 311 311 311 313 317 320 321 322 322 322 323 319 320 310 284 270 255 256 264 270 284 281 265 263 264 262 264 271 277 291 309 308 297 281 270 292 289 277 320 336 29 46 55 71 71 57 49 40 29 64 95 107 110 98 107 143 136 119 138 117 108 106 90 65 20 300 191 153 167 168
344 347 346 342 340 342 342 338 339 342 342 340 336 332 328 322 317 312 310 310 311 315 318 320 321 321 321 322 322 324 326 305 277 265 237 231 253 270 278 267 246 240 239 246 267 280 288 300 306 301 298 296 289 291 306 3 340 322 43 45 70 96 91 78 69 61 35 45 74 89 114 100 111 140 122 126 150 134 140 136 120 114 146 251 195 158 174 176
335 334 335 333 332 333 334 333 333 336 336 336 333 330 326 324 318 313 310 310 313 317 319 320 320 318 319 319 319 332 320 288 277 83 115 170 243 261 249 236 224 218 230 254 273 284 290 292 290 290 291 288 266 244 341 35 353 326 53 37 60 90 91 82 79 77 58 50 53 73 114 95 110 135 119 144 160 142 180 175 153 151 183 210 183 164 175 176
328 324 323 323 323 324 326 326 327 329 330 331 330 327 324 323 320 315 311 311 316 318 319 319 318 316 314 310 316 328 307 283 95 93 97 99 250 242 231 216 207 212 234 258 271 279 280 281 284 282 278 283 287 273 45 48 332 336 65 56 49 76 89 80 77 85 78 79 50 46 54 80 148 236 130 156 164 125 174 172 158 163 188 194 172 167 170 175
322 320 316 313 313 314 317 319 320 322 322 324 325 325 323 322 320 316 312 313 316 317 318 317 316 315 308 306 319 312 284 313 90 105 101 90 275 228 218 207 201 209 239 261 269 274 274 274 274 277 290 305 341 357 38 27 309 356 77 78 53 66 84 84 86 108 37 54 31 35 1 9 47 286 112 155 146 129 158 161 159 164 177 187 169 169 174 180
318 316 311 309 307 306 309 311 314 315 316 318 319 321 321 320 319 316 314 315 315 318 318 315 313 312 313 311 313 266 258 279 93 103 89 73 271 200 209 204 200 206 235 258 261 264 272 275 280 297 306 314 354 351 33 288 306 22 62 93 81 68 70 73 82 71 52 57 35 15 320 15 12 330 56 62 137 136 153 155 157 161 166 184 178 173 181 185
320 316 311 307 303 302 302 305 308 309 310 312 314 316 318 318 317 316 316 315 316 319 319 316 314 316 330 328 294 254 246 117 97 107 82 76 136 181 195 195 202 213 236 252 258 266 273 268 283 315 306 331 4 312 323 246 272 37 21 43 86 81 67 60 74 78 66 83 63 307 359 46 4 322 341 10 123 134 143 147 153 157 166 178 174 183 189 181
323 318 314 309 304 301 299 301 303 304 306 308 310 312 314 314 315 318 316 315 318 319 321 314 311 322 337 326 282 275 108 91 100 109 90 100 118 161 180 194 201 216 237 246 258 266 271 277 313 344 318 322 321 286 315 298 350 43 349 351 57 70 68 45 60 83 51 112 90 343 9 41 29 337 297 165 130 132 130 138 147 153 169 170 166 195 207 184
323 319 315 310 306 302 299 300 300 302 302 304 308 308 309 310 313 318 313 313 318 314 315 310 316 331 323 290 273 286 91 99 111 115 108 123 137 156 193 211 196 213 242 246 251 257 269 304 331 326 303 302 294 273 304 333 356 355 313 331 62 81 91 63 51 80 42 146 102 27 1 3 26 357 277 153 129 111 112 130 138 146 171 171 173 184 197 200
322 318 314 310 306 303 302 299 299 299 300 302 305 305 305 308 313 317 309 311 314 307 310 305 321 330 304 279 276 310 91 125 125 126 133 137 159 177 201 218 201 213 239 244 246 260 278 316 334 299 302 330 310 276 299 17 347 290 308 274 182 129 103 107 146 94 45 152 91 80 257 321 316 310 307 271 111 101 106 126 124 149 176 170 184 182 190 205
320 316 313 309 304 303 302 298 297 296 297 299 299 300 302 308 314 312 305 305 299 291 300 300 324 335 306 275 257 302 64 172 134 129 155 158 187 193 198 212 206 217 240 253 249 258 279 311 323 294 310 328 299 291 336 359 302 275 278 261 196 152 137 129 153 75 69 82 88 141 204 221 228 245 268 265 107 111 126 117 119 168 185 167 179 187 214 213
321 314 309 305 302 301 300 297 294 293 295 296 295 297 300 308 312 306 303 299 284 282 290 299 320 321 295 278 226 114 36 153 138 150 175 191 207 195 228 217 206 224 252 273 276 284 294 295 292 294 305 305 292 315 326 289 266 268 256 251 210 181 166 142 183 211 195 121 104 185 265 298 220 235 258 299 84 122 138 135 141 179 183 168 177 185 222 217
320 314 307 303 301 299 297 293 290 290 291 291 289 293 299 306 304 297 296 285 266 268 278 289 304 304 268 269 92 138 201 148 173 205 186 200 210 189 211 219 214 233 257 271 286 312 319 289 279 287 284 274 279 307 302 261 238 259 264 248 232 215 147 160 188 196 199 147 158 226 315 307 201 210 218 293 312 139 141 162 159 166 168 169 184 189 207 188
318 313 306 303 300 297 293 289 287 286 286 286 284 290 297 297 290 287 288 276 258 258 279 287 268 254 263 247 159 167 193 207 217 203 184 193 209 203 192 200 218 231 247 256 273 293 286 279 278 275 276 278 276 277 276 263 233 230 259 263 255 193 129 169 190 167 252 151 177 224 298 299 172 193 190 173 249 181 145 171 152 152 172 174 194 197 200 196
315 311 306 303 298 294 289 284 283 281 279 277 276 282 279 268 261 261 273 263 252 253 269 283 230 215 272 299 133 173 198 216 207 180 185 205 218 210 173 183 213 217 232 241 254 274 266 264 271 273 286 294 283 270 273 281 263 224 231 276 284 168 138 160 180 159 104 292 202 205 260 309 235 207 187 164 227 215 152 163 146 155 182 178 192 201 190 199
314 310 306 302 295 291 284 279 278 274 268 264 266 264 247 238 238 236 282 272 266 266 262 280 263 229 262 313 154 197 197 191 169 168 191 217 233 220 159 192 213 204 221 231 232 252 255 249 265 264 260 263 266 278 275 268 282 279 254 269 292 355 138 153 150 157 186 230 228 225 239 259 246 214 172 162 224 251 160 160 158 164 191 179 190 206 183 190
314 309 305 300 295 290 279 274 271 261 252 248 240 212 212 229 235 243 274 286 310 272 261 262 275 273 241 234 218 187 171 150 152 178 187 205 230 234 188 205 209 195 214 228 224 230 236 233 249 259 254 246 243 254 261 270 318 342 331 321 327 351 344 146 138 164 196 225 283 276 264 261 268 189 145 165 216 267 172 164 169 180 196 182 196 210 168 175
312 308 304 299 294 285 274 269 257 241 222 197 158 132 95 198 254 259 242 232 187 232 266 198 215 278 112 176 154 114 130 142 166 184 188 201 209 213 212 210 202 206 219 218 205 210 223 232 234 250 256 247 241 233 255 280 328 350 321 317 308 303 292 266 170 128 122 313 293 291 307 313 315 19 139 169 200 239 224 168 168 183 196 182 194 192 136 139
311 307 304 298 292 282 270 257 228 210 186 153 128 205 184 191 210 203 208 220 223 247 293 168 192 236 92 132 113 102 123 164 201 198 189 196 193 199 208 209 205 211 229 229 202 196 218 241 232 240 245 251 262 248 252 286 340 350 299 287 283 282 284 273 142 96 71 326 299 306 314 307 313 317 171 174 182 194 219 191 184 180 179 177 182 168 140 134
311 308 304 298 291 277 261 242 206 197 182 155 161 243 246 311 297 145 178 208 219 237 268 215 202 260 346 92 102 145 177 185 212 202 169 182 197 194 184 202 215 206 222 237 227 192 201 243 241 243 248 249 262 263 284 315 325 308 287 285 283 277 279 266 138 130 145 268 296 293 298 303 308 303 268 195 187 178 166 241 262 219 170 166 191 186 156 141
309 307 302 296 289 268 241 223 200 195 184 172 217 240 268 332 350 336 274 238 215 217 243 241 227 262 260 278 327 237 221 200 196 177 157 185 206 194 167 193 223 219 212 227 240 206 192 239 242 242 259 260 260 272 314 310 294 290 283 282 281 271 270 255 137 131 150 209 282 294 312 305 291 300 326 325 192 117 120 183 280 309 115 150 211 213 166 152
308 304 300 291 277 243 205 204 194 194 190 194 230 234 262 329 338 320 301 279 221 196 216 224 225 226 206 231 232 213 236 223 190 164 161 199 216 209 203 206 227 236 221 209 225 234 215 224 226 225 241 255 257 267 293 282 273 270 263 268 271 270 272 254 129 166 187 203 279 344 312 284 269 259 22 20 46 72 94 117 8 360 50 140 227 230 176 170
306 299 294 273 237 185 180 184 186 204 202 211 240 244 267 313 319 319 309 279 228 178 208 207 207 223 213 222 185 201 233 232 200 164 157 204 219 203 225 232 232 238 239 223 218 243 258 260 274 251 239 250 258 258 266 267 263 256 250 259 271 278 281 282 225 205 192 191 197 326 289 285 286 119 109 87 100 94 86 75 40 8 6 27 35 74 184 210
305 294 280 215 192 168 167 178 199 213 201 215 245 251 263 283 301 323 318 276 214 162 198 197 200 220 197 177 175 209 237 237 224 167 154 208 226 197 222 246 243 235 239 239 227 235 261 270 287 278 260 272 280 267 263 265 268 266 252 250 254 262 278 298 325 305 243 203 191 226 292 306 89 100 83 222 136 96 81 76 33 325 272 302 136 137 139 268
307 288 228 185 182 164 160 173 203 202 195 218 239 236 244 260 298 322 301 266 193 151 170 179 183 181 169 175 185 217 239 228 194 141 155 208 234 237 252 231 217 246 262 271 257 241 250 258 261 259 258 264 265 263 268 269 270 272 272 277 266 250 269 303 309 286 278 258 195 214 279 298 98 77 25 8 95 101 122 222 251 212 203 200 233 203 152 188
311 260 190 187 176 159 162 332 204 195 198 217 219 195 215 257 325 316 272 257 195 162 158 160 164 172 173 177 190 213 236 158 134 141 170 201 220 233 258 248 218 240 263 281 270 246 235 253 265 287 275 256 252 255 246 243 257 263 275 308 298 297 295 283 276 264 280 289 209 203 237 273 294 50 32 16 112 135 178 230 218 205 214 194 210 247 196 180
316 193 181 188 175 168 212 319 306 250 213 102 138 188 181 259 305 269 257 268 154 153 157 146 122 180 184 181 204 221 76 126 159 168 169 182 212 220 232 257 272 255 232 231 254 183 187 233 235 226 242 249 253 260 248 235 244 258 295 344 322 312 296 281 287 285 287 298 271 241 252 273 307 117 172 214 218 195 196 208 202 195 222 217 210 219 209 169
310 173 180 179 177 194 254 300 293 298 347 48 198 261 107 243 255 238 256 270 153 164 161 145 146 192 193 184 207 223 198 196 233 158 155 170 214 239 256 273 289 282 264 242 258 263 218 262 261 237 236 241 243 254 261 260 247 257 312 341 307 284 283 280 282 283 288 297 296 295 288 282 271 156 174 192 239 297 195 206 242 175 152 145 233 213 213 167
164 167 176 170 174 209 258 256 254 289 335 333 308 305 260 237 234 228 242 229 168 164 126 147 176 186 194 194 198 216 223 206 146 157 169 176 204 223 269 282 280 282 271 250 256 265 269 282 304 279 261 255 247 244 247 257 270 281 307 306 279 263 258 260 267 280 290 285 292 300 288 279 261 159 262 134 143 41 66 96 27 102 127 121 136 199 222 166
161 167 174 171 174 209 231 231 239 272 302 305 303 277 251 228 235 254 248 140 172 158 140 170 180 173 190 207 195 196 223 202 157 188 193 184 204 204 238 247 237 257 254 244 240 241 245 239 235 246 254 266 265 259 251 236 273 289 286 275 282 271 243 255 281 288 284 281 289 293 291 295 308 21 349 74 91 59 83 134 94 102 109 100 83 14 26 146
154 168 177 179 186 211 224 301 352 329 301 303 285 258 244 219 219 251 240 134 192 175 170 181 175 176 190 211 204 181 217 211 171 199 214 198 209 204 218 225 217 236 241 243 234 220 224 227 226 220 212 239 258 258 254 227 225 241 249 258 275 278 266 264 265 263 265 276 283 308 345 316 320 345 352 76 84 39 53 325 110 97 82 67 45 19 14 268
151 166 180 195 219 219 226 295 331 318 310 288 274 254 252 241 228 261 224 153 148 154 165 168 169 183 186 206 212 178 209 223 173 194 216 210 222 208 212 226 238 260 275 283 276 246 216 205 209 216 196 199 230 242 233 218 204 213 225 236 251 267 273 267 261 255 258 270 281 351 21 296 307 19 12 93 97 358 45 354 70 87 77 53 38 29 348 314
158 166 176 211 244 231 228 262 287 300 298 272 264 245 245 246 283 287 262 114 73 127 155 158 164 179 189 211 210 169 205 223 173 192 204 203 238 226 215 217 224 261 281 273 288 297 283 227 194 214 197 177 200 233 250 255 240 226 234 247 254 260 262 275 287 269 270 283 268 274 329 312 29 3 288 105 107 244 106 87 88 90 85 60 29 23 338 318
176 185 186 220 244 234 231 245 257 270 272 266 263 245 253 268 259 278 300 80 108 160 145 149 167 178 190 221 211 177 215 228 179 207 213 205 231 232 245 220 190 223 269 262 317 312 288 288 182 198 198 170 189 213 239 269 280 261 264 275 271 270 257 264 279 281 289 297 271 272 339 15 60 239 240 88 73 280 62 78 106 105 95 85 42 2 338 332
196 195 203 223 235 233 224 224 231 237 246 262 258 243 269 282 262 305 1 9 326 159 138 155 195 195 180 210 215 179 197 227 193 206 208 220 236 224 297 298 135 125 292 296 332 307 282 299 181 178 176 165 200 223 208 228 270 283 260 274 313 310 291 278 277 287 294 284 287 12 18 13 350 250 280 33 335 10 30 26 106 110 112 109 91 12 359 0
217 208 225 230 221 209 198 201 209 218 235 261 266 275 285 245 269 335 0 314 315 318 186 177 191 216 197 195 203 171 178 203 188 205 214 209 230 214 209 316 35 358 323 333 322 308 314 314 311 242 199 181 211 252 229 211 229 261 260 295 351 305 283 296 298 300 300 282 316 7 328 16 6 290 336 330 293 353 12 356 84 109 121 117 107 87 20 9
254 251 249 230 194 180 180 189 203 214 237 255 257 268 277 279 332 345 330 296 297 274 251 235 172 226 244 226 190 165 175 197 170 197 237 186 175 335 271 259 74 57 314 317 294 309 332 301 301 303 273 236 195 231 254 232 235 268 288 312 330 292 277 302 289 288 298 287 351 330 302 168 146 271 18 341 329 4 5 10 33 49 69 109 123 129 93 28
269 272 251 185 167 171 170 181 205 223 246 258 265 265 266 286 38 356 319 283 278 264 261 289 237 219 240 264 254 174 178 218 188 182 242 175 143 335 326 298 37 107 319 294 282 319 328 294 291 282 272 255 180 187 243 236 225 237 264 280 274 271 282 282 265 267 290 277 204 292 301 7 13 23 51 29 17 19 6 20 35 20 17 80 117 107 86 66
261 273 189 149 161 162 160 179 214 234 243 256 279 268 272 311 72 31 332 269 278 300 330 326 308 230 236 245 269 229 193 228 238 199 198 162 164 178 70 26 304 320 350 297 279 297 278 268 287 285 282 274 197 197 239 253 243 222 226 246 245 246 248 252 264 269 282 281 249 249 277 296 346 32 67 46 17 28 4 16 45 19 3 63 110 108 105 95
259 273 140 147 156 153 162 194 220 230 243 263 263 233 324 342 350 28 70 265 285 288 309 324 331 291 274 248 290 304 237 233 259 251 207 164 167 43 27 19 322 309 318 280 265 294 288 274 282 282 280 264 251 252 251 263 277 273 264 265 268 272 263 261 271 268 269 276 268 114 146 239 308 347 52 27 321 12 52 44 17 355 329 313 111 119 127 101
264 275 128 151 157 158 182 223 236 234 228 257 285 69 69 311 298 309 161 230 282 284 257 300 317 309 304 342 16 314 287 266 262 276 347 339 65 79 51 358 322 302 298 284 306 21 344 302 292 292 287 281 288 293 278 265 266 270 279 282 286 296 286 275 275 274 280 298 332 69 104 114 272 279 329 17 345 7 53 87 66 276 269 264 135 133 140 121
259 222 134 153 161 172 216 252 246 248 217 160 302 47 97 255 278 327 326 225 275 292 277 278 291 317 330 337 321 317 334 318 297 329 335 314 61 88 81 359 326 299 302 306 354 23 340 288 288 297 292 290 291 286 284 297 297 272 271 277 278 288 287 284 294 298 301 8 35 38 68 92 234 258 275 240 65 35 24 41 240 253 276 353 85 123 130 125
272 241 137 161 173 188 243 283 269 265 32 22 289 108 280 313 344 350 3 20 335 323 338 334 320 306 322 307 297 324 355 311 304 332 301 295 64 87 70 25 333 307 353 18 5 2 325 291 294 292 285 284 282 271 282 326 343 325 300 290 279 277 277 277 288 294 296 28 18 313 223 146 212 235 310 292 125 97 16 287 322 305 290 66 74 89 81 91
290 226 131 164 183 207 251 290 304 290 133 194 240 204 198 203 353 330 335 356 343 339 338 346 348 297 300 309 285 295 303 275 295 338 309 298 108 115 76 40 308 303 47 46 351 323 296 289 295 288 289 294 291 293 311 330 330 303 288 293 296 293 288 284 285 283 272 50 338 266 207 225 223 158 12 328 20 71 345 327 353 351 4 78 93 75 60 75
299 221 160 166 187 226 246 253 287 300 51 206 224 223 258 190 125 260 288 300 338 326 313 328 359 311 299 311 291 280 274 273 285 303 304 294 279 100 82 41 269 293 78 65 304 294 290 283 279 271 272 275 269 276 290 289 280 281 291 299 302 300 298 293 287 293 303 137 228 206 173 208 245 188 136 185 99 73 343 330 358 12 25 75 108 101 98 99
292 293 336 149 195 235 226 214 263 317 24 299 271 73 285 300 87 161 226 336 347 318 298 284 316 315 322 344 319 304 302 297 292 292 293 286 289 312 2 301 286 128 113 225 258 255 272 272 273 270 264 266 266 269 276 272 268 274 285 288 287 289 293 289 286 279 166 229 252 189 170 191 244 224 147 158 165 115 25 329 344 356 42 103 119 128 123 105
299 326 16 8 302 301 11 348 321 345 20 328 344 354 271 297 341 167 125 10 318 319 304 258 244 338 334 355 343 313 306 307 303 304 307 306 309 319 326 312 302 153 155 252 261 252 279 275 285 288 282 284 284 280 279 274 271 269 260 263 271 278 281 283 286 277 169 272 284 181 176 175 250 345 91 103 62 93 127 179 291 303 84 109 130 157 144 128
345 351 11 341 320 352 4 358 332 325 357 30 352 294 293 327 351 11 18 338 310 10 346 310 5 22 341 349 341 301 303 313 314 337 347 343 330 323 314 303 296 205 197 285 296 331 327 289 283 289 286 287 286 285 286 280 278 278 273 271 273 277 278 278 286 310 9 3 12 160 171 119 81 52 71 83 41 42 114 133 299 322 96 135 176 205 171 153
356 350 357 326 320 354 338 330 312 287 307 79 324 305 326 344 13 18 6 328 325 12 9 325 350 7 332 323 315 309 343 359 345 345 347 339 323 314 312 307 306 307 313 320 325 331 317 284 287 293 286 281 281 281 280 276 276 276 274 274 273 276 280 281 295 330 358 9 39 121 135 78 69 37 38 53 16 22 59 43 355 338 313 193 207 244 232 172
345 347 356 321 319 10 310 299 299 287 293 109 53 26 358 350 13 352 328 13 340 348 6 342 346 352 317 303 320 349 8 7 340 328 327 320 309 304 304 302 303 308 311 310 308 304 294 292 299 294 283 282 282 278 275 275 278 275 271 272 274 280 287 290 324 17 15 1 35 91 96 54 16 354 352 359 11 29 45 40 22 346 333 296 226 232 234 160
350 349 353 321 306 52 266 257 242 282 355 33 24 17 356 360 14 338 315 52 14 3 23 347 333 334 308 311 350 358 349 337 320 315 311 299 289 285 280 279 281 284 285 288 292 292 285 285 290 285 282 284 283 285 289 286 277 271 271 278 292 312 325 338 16 37 33 14 25 71 94 99 43 354 339 343 13 37 51 48 46 40 353 321 298 268 164 114
Height
791 791 790 789 789 788 787 786 786 785 784 784 783 782 781 781 780 779 778 777 777 775 775 774 773 772 770 770 768 767 766 764 763 762 760 756 754 755 755 756 755 756 755 755 754 752 748 744 739 734 735 734 731 727 724 721 718 727 745 761 772 777 777 772 771 769 768 770 770 766 765 776 782 775 767 767 771 772 775 773 770 769 768 768 766 764 765 766
792 791 790 790 789 788 787 787 786 785 784 783 783 782 781 780 779 778 778 777 776 775 775 773 772 772 770 769 768 767 766 763 763 759 755 754 754 755 754 755 755 755 755 755 753 749 747 744 737 734 737 737 729 724 726 722 721 735 750 764 772 771 768 762 763 764 763 767 767 763 762 766 772 771 765 774 780 775 780 779 774 775 773 770 766 765 767 766
791 791 790 790 789 788 788 786 786 785 784 783 782 782 781 780 779 778 777 776 775 775 774 773 772 770 770 769 767 768 766 763 762 756 752 753 754 754 754 754 754 754 754 754 752 748 747 743 739 738 740 741 732 726 729 726 728 735 746 767 767 758 761 758 759 761 759 760 763 764 761 762 764 761 763 775 781 779 783 781 778 781 778 773 766 764 767 765
791 791 790 789 789 788 787 786 786 785 784 783 782 781 781 779 778 777 777 776 775 774 773 772 771 770 770 768 768 768 765 766 762 752 750 753 753 753 754 753 753 754 754 754 753 749 746 742 739 738 743 746 732 726 732 730 732 735 743 763 756 747 759 757 755 757 755 756 761 762 761 764 760 755 763 772 781 784 781 776 775 778 776 772 766 763 764 764
791 790 790 789 788 788 787 786 785 785 784 783 782 781 780 779 778 777 776 776 774 774 773 772 771 770 770 768 769 767 768 775 762 749 752 753 753 753 753 753 753 754 754 755 753 749 746 742 740 741 744 744 734 732 737 729 729 739 743 749 744 744 759 756 752 755 753 754 758 761 764 763 757 756 761 767 778 780 772 768 768 770 769 766 763 761 762 763
791 790 789 789 788 787 786 786 785 784 784 782 782 780 780 779 777 776 776 775 774 774 772 772 770 770 769 768 769 767 773 776 756 748 754 751 753 753 752 753 753 753 754 755 752 748 746 742 743 747 743 741 740 741 740 729 726 744 748 741 740 742 751 752 751 754 751 755 761 763 761 755 758 762 756 759 767 765 759 759 762 763 762 761 760 761 763 763
790 789 789 788 787 787 786 785 785 784 783 782 781 780 779 778 777 777 775 775 774 773 772 771 770 770 769 768 769 768 770 764 749 750 753 750 753 751 752 753 752 754 754 754 751 748 747 746 748 747 746 745 744 741 739 732 727 742 750 742 741 741 745 748 749 752 752 758 761 757 757 757 764 764 754 756 756 754 753 753 756 759 759 760 760 761 762 761
789 789 788 787 786 786 785 785 783 783 782 781 781 780 779 778 777 776 775 775 773 773 772 771 771 770 769 769 768 767 765 756 749 752 752 751 753 751 753 753 753 754 753 753 749 746 746 748 747 744 752 750 743 742 737 737 737 742 749 742 739 741 744 745 747 752 753 756 757 755 759 760 760 757 754 755 750 748 752 752 754 757 759 760 760 761 761 760
789 788 787 787 785 785 784 783 783 782 781 780 780 779 778 777 776 776 775 774 773 773 771 771 771 769 771 769 767 769 761 751 751 752 751 752 752 751 753 752 754 754 752 752 747 746 747 748 745 743 753 749 742 743 736 744 751 744 744 741 740 744 745 746 748 751 754 753 755 760 763 758 752 753 757 752 744 744 748 755 757 759 762 762 762 763 760 759
788 787 786 786 784 784 783 782 782 781 781 780 779 778 778 777 776 775 775 774 773 772 771 772 771 770 771 768 769 772 758 749 752 753 752 753 752 753 753 752 754 753 751 750 745 745 744 745 742 737 745 745 741 742 738 746 750 739 739 740 741 746 744 747 751 750 751 752 754 762 767 759 750 757 764 749 738 742 750 759 759 761 765 763 762 762 759 758
787 786 786 784 783 783 782 782 781 780 780 779 778 778 777 776 776 775 774 774 773 772 772 771 771 771 771 768 772 770 753 749 753 752 753 753 753 754 753 753 752 752 751 747 745 743 741 741 737 739 748 748 743 743 739 738 740 736 739 743 743 744 745 747 751 750 751 755 753 757 765 762 755 762 764 745 735 744 754 759 760 763 764 762 761 760 758 757
787 785 784 783 783 781 781 781 780 779 779 778 778 777 776 776 775 775 774 773 773 772 772 771 772 771 770 769 768 760 750 751 752 751 754 753 753 753 751 753 751 752 750 745 744 742 742 740 739 750 753 748 750 752 744 734 736 737 738 750 748 746 753 751 750 750 752 757 751 754 771 770 764 764 755 739 736 746 754 758 763 764 761 761 761 760 759 756
786 784 783 782 781 780 780 779 779 779 778 777 777 776 776 775 774 774 773 773 773 772 772 772 772 770 773 770 756 751 751 751 752 752 753 752 752 752 751 752 751 751 750 746 744 741 743 743 744 750 746 749 755 748 740 733 737 742 738 747 751 756 763 753 750 751 752 756 747 757 783 779 766 761 748 737 737 747 757 760 762 762 759 760 761 762 761 759
784 783 782 781 780 780 779 778 778 777 777 777 776 776 775 774 775 774 773 773 772 772 772 772 772 771 774 766 750 750 752 750 752 751 751 752 751 751 752 751 751 751 750 748 746 744 746 744 744 747 744 747 747 739 741 741 740 745 745 745 749 765 772 754 749 753 756 755 743 759 786 777 763 757 747 740 739 746 757 758 758 760 760 761 762 763 763 761
783 782 781 780 779 778 778 777 777 776 776 776 775 775 774 774 774 773 773 773 772 772 771 771 771 771 772 762 748 750 752 750 751 749 750 751 750 750 750 751 751 750 751 750 748 747 747 746 748 754 749 740 739 748 756 750 741 742 756 761 749 761 776 759 747 751 758 754 743 761 783 773 760 753 744 742 741 744 753 755 755 760 760 761 762 761 763 761
782 781 779 778 777 777 777 776 776 776 775 775 775 775 774 774 773 773 774 771 772 772 771 772 769 769 774 762 749 750 751 748 748 748 750 749 748 748 748 750 750 750 751 750 749 748 746 747 749 752 752 748 751 759 762 760 752 741 755 769 756 759 773 766 753 746 750 755 750 760 775 770 759 748 741 742 742 743 750 752 753 760 759 758 761 759 761 763
780 779 778 777 776 776 775 775 775 775 774 775 774 774 774 774 773 773 772 772 773 771 771 771 765 768 769 754 751 753 747 745 746 747 749 748 748 746 747 750 749 749 749 748 749 748 747 751 754 753 754 757 757 759 773 781 769 751 752 759 755 756 764 766 762 748 745 755 756 757 762 762 751 740 740 743 742 741 747 751 751 755 756 756 758 757 759 763
779 778 776 776 775 774 774 774 774 774 774 774 774 774 774 774 774 773 773 772 772 772 773 770 767 777 772 754 751 749 743 745 746 746 748 748 747 747 747 748 747 748 752 754 752 752 754 754 757 764 762 760 758 763 781 780 765 762 762 762 761 757 757 761 762 752 746 754 758 757 757 752 740 734 740 743 740 741 745 747 747 749 751 753 755 755 758 763
778 776 775 774 773 773 773 773 773 774 774 774 774 774 774 774 774 773 773 772 773 775 774 768 768 775 768 752 744 741 741 745 746 746 747 746 747 748 746 746 746 751 760 765 761 755 757 761 766 775 774 766 760 759 767 760 752 760 763 764 767 764 758 753 750 744 743 756 759 757 756 751 742 738 742 742 738 741 744 745 747 747 746 749 751 753 758 764
776 774 774 773 772 772 772 772 773 773 774 774 775 775 776 775 775 775 771 770 768 764 760 757 756 756 751 745 741 742 745 746 746 745 745 746 746 747 746 747 750 757 763 767 764 753 755 772 777 776 772 762 754 747 747 745 746 756 761 763 763 763 760 747 744 742 741 757 761 753 755 752 746 741 739 739 738 740 743 746 749 748 747 747 750 752 756 761
774 773 772 771 772 771 772 772 772 773 773 774 775 775 771 767 771 773 767 766 759 751 752 748 745 747 745 741 740 741 745 749 746 742 745 745 743 752 753 752 761 768 764 759 758 749 757 778 776 763 757 750 746 741 740 746 751 757 762 764 762 762 758 743 742 744 739 756 760 750 754 753 746 741 733 731 737 741 741 745 747 745 747 748 748 751 753 756
773 772 770 771 771 770 771 771 772 773 773 774 774 772 764 758 761 760 759 765 757 747 749 745 743 747 742 740 741 740 746 753 751 743 743 744 746 755 757 756 767 769 758 756 760 761 770 777 765 751 746 744 744 739 742 752 756 760 762 766 768 760 752 742 739 740 740 755 758 750 756 756 744 738 734 731 733 737 738 741 744 743 748 752 749 749 750 755
772 770 770 770 769 770 771 771 772 772 773 773 772 767 761 757 757 754 757 765 759 747 747 747 749 750 745 744 741 741 750 754 754 748 741 745 749 751 755 760 765 763 758 760 766 772 776 765 748 742 742 746 749 743 748 756 758 761 763 768 768 755 752 756 751 744 742 748 752 752 759 754 742 740 741 737 736 738 738 739 741 742 746 750 747 745 749 753
770 768 769 769 769 771 770 771 773 771 771 771 769 764 761 760 758 757 758 762 760 749 743 742 744 746 746 742 738 744 751 746 747 747 740 746 750 748 753 756 761 764 760 756 759 768 767 748 734 738 741 745 751 749 752 762 763 759 757 762 763 752 749 753 749 742 742 747 747 753 767 758 744 750 751 740 738 742 743 744 746 744 742 742 742 744 748 751
768 768 768 768 769 769 770 772 771 769 770 770 767 762 761 762 758 758 762 767 765 753 744 741 742 742 737 738 740 741 746 743 739 738 736 741 746 749 752 749 756 767 760 752 756 764 760 741 734 744 747 746 753 756 755 761 766 762 752 748 749 748 746 743 743 746 756 765 752 752 782 777 750 754 756 742 743 749 749 748 749 747 743 742 743 744 747 747
767 768 767 768 769 769 771 770 767 768 769 766 763 760 761 762 759 759 766 776 774 760 754 749 748 746 737 740 740 737 753 752 732 729 735 739 738 743 755 751 752 761 755 749 753 756 751 739 737 746 750 752 758 760 754 753 766 768 748 735 735 738 744 746 748 756 767 771 754 747 778 786 763 759 756 746 751 756 753 749 747 747 746 745 745 745 745 743
767 766 767 768 768 770 771 766 765 766 766 762 759 760 761 760 759 760 771 791 782 760 757 753 748 746 741 740 735 745 768 755 733 734 734 738 737 737 757 759 753 757 748 753 766 757 746 745 745 748 754 759 762 761 751 747 764 766 739 732 737 737 745 750 749 757 757 753 750 744 758 777 776 767 756 751 758 760 757 753 749 746 745 745 744 744 743 743
767 766 767 768 768 770 769 766 766 762 760 760 758 760 761 760 761 762 783 808 785 751 750 750 743 739 736 736 735 747 756 744 749 750 729 735 741 740 759 760 754 755 742 758 778 755 740 750 752 752 759 763 759 753 742 740 756 752 731 733 741 740 746 745 747 755 748 752 766 752 747 772 783 768 754 753 758 760 759 753 748 746 744 744 742 741 741 743
766 766 767 767 769 770 768 769 768 762 761 760 760 762 759 760 762 767 793 806 774 746 745 745 744 742 739 741 743 745 744 742 755 748 729 738 741 740 757 754 750 755 743 752 768 752 739 742 739 744 755 757 751 742 734 738 747 738 729 737 741 741 744 744 751 755 752 768 781 761 749 773 787 772 757 758 762 761 757 750 745 744 744 743 741 740 740 740
766 767 767 768 770 769 769 769 765 763 762 761 763 761 759 763 769 788 808 795 763 749 745 746 750 748 747 754 755 750 747 747 747 742 739 744 741 741 748 743 745 756 752 750 755 749 738 732 732 740 746 743 739 735 729 733 737 732 736 745 746 745 744 747 750 751 767 786 778 759 751 763 784 777 756 757 758 753 754 753 748 744 743 742 739 738 737 737
766 767 767 768 768 768 768 766 763 764 763 763 764 760 763 770 778 802 804 770 753 755 749 751 752 747 752 761 761 756 752 749 746 750 754 751 751 753 753 754 756 762 765 760 754 748 741 740 740 737 735 734 736 737 730 728 733 738 747 754 760 759 753 760 763 763 789 799 772 755 749 755 780 777 751 748 748 741 746 750 749 747 744 742 739 736 735 735
767 767 767 767 767 767 767 765 763 764 764 764 763 760 771 785 792 797 780 755 761 763 750 752 752 749 755 758 757 756 755 752 748 752 758 758 761 760 760 765 763 771 779 768 757 751 746 744 738 732 730 731 743 750 744 738 739 747 753 759 775 781 779 789 791 785 795 791 763 752 756 763 775 765 746 746 744 740 741 740 742 745 744 742 740 737 735 733
768 767 768 768 767 767 766 765 765 765 765 764 764 764 778 797 797 778 759 756 761 750 739 745 747 748 755 759 757 752 753 753 748 751 753 754 760 757 754 752 749 764 774 764 760 757 750 741 732 736 735 729 741 756 760 753 746 751 754 762 778 789 800 809 800 791 792 780 759 751 762 773 771 755 743 743 741 736 735 734 737 742 743 743 739 737 736 732
768 768 769 768 767 766 765 766 766 766 765 763 767 775 788 801 791 765 753 753 747 737 737 742 745 750 755 757 754 747 754 756 745 749 754 754 762 760 753 748 743 750 757 761 763 759 764 760 741 739 737 731 738 746 748 745 743 744 738 745 763 770 789 802 794 791 787 775 764 758 766 778 776 760 740 734 733 729 729 732 736 740 741 742 740 738 738 734
769 768 768 767 767 765 764 765 765 766 767 765 772 784 792 795 784 764 754 745 740 740 740 737 744 757 760 755 747 740 750 756 745 748 755 756 761 758 750 745 740 744 753 765 765 756 766 762 732 723 723 724 737 734 728 740 750 740 727 742 755 748 758 775 775 772 769 772 772 764 766 765 759 750 733 729 732 727 728 732 737 744 744 743 746 742 740 738
769 768 768 767 764 763 763 765 765 766 766 768 781 787 784 781 771 759 750 742 741 742 744 748 750 759 765 758 750 743 744 750 749 752 755 753 753 750 747 740 735 742 750 760 765 761 768 758 725 719 723 720 730 727 722 740 753 744 741 750 743 727 737 761 770 760 760 783 783 770 776 771 761 756 738 733 739 733 733 735 737 746 746 746 750 746 744 743
770 769 768 763 761 762 763 763 765 766 765 772 787 783 770 765 755 747 744 742 740 737 747 761 757 756 763 760 755 750 748 750 750 755 758 755 752 746 745 742 735 741 743 749 760 757 764 766 735 724 734 722 716 721 720 722 733 746 753 743 729 729 736 752 775 778 779 795 788 773 780 784 789 785 754 742 748 742 738 738 737 743 745 748 750 747 747 745
769 768 764 758 759 760 760 763 764 763 766 776 785 776 761 755 746 741 741 740 739 740 749 761 757 753 757 760 756 749 750 757 754 756 758 757 756 747 744 746 740 739 738 743 757 750 753 774 752 727 736 726 710 726 737 723 717 733 739 726 733 760 763 760 779 791 795 805 799 784 778 778 788 785 763 756 755 748 747 745 742 744 744 746 748 747 747 746
769 769 763 755 756 758 760 763 761 762 772 780 783 774 758 749 744 738 738 739 740 743 751 754 751 750 751 754 754 747 749 756 752 755 758 758 761 751 743 748 744 741 738 739 754 751 749 775 771 737 727 724 719 736 753 744 727 726 731 729 736 754 762 763 768 773 785 800 804 801 796 787 777 767 763 764 755 750 755 751 748 748 744 745 747 747 749 751
767 769 763 752 754 759 758 761 761 768 777 775 771 768 754 746 743 737 734 738 740 742 751 752 748 752 752 748 748 745 746 750 746 750 755 753 759 755 744 746 747 743 740 739 748 750 749 768 777 751 729 733 741 742 745 745 739 737 744 747 745 742 745 754 755 752 765 786 797 809 820 803 772 756 759 760 752 750 752 750 748 746 742 744 746 747 750 753
765 770 763 750 754 757 756 764 768 769 773 769 761 758 753 748 746 741 735 736 738 737 742 747 749 752 751 749 750 746 744 749 745 747 751 749 757 763 752 745 747 746 746 747 749 752 754 762 772 764 750 751 747 730 724 730 732 736 742 744 745 744 747 764 771 755 751 766 778 798 822 806 768 752 752 751 749 748 748 749 749 745 743 743 743 746 748 751
767 773 761 749 754 755 757 769 768 759 766 769 758 751 753 752 747 744 739 737 740 737 737 744 748 749 749 749 752 750 748 752 749 749 756 752 752 761 754 744 744 745 748 753 750 748 752 759 769 770 759 751 739 722 718 721 720 725 732 732 735 739 745 767 780 764 753 760 762 778 804 793 760 748 747 746 745 744 745 748 748 745 743 741 740 743 746 750
769 765 753 749 752 752 762 774 766 756 758 758 750 747 750 750 748 747 744 743 745 743 744 748 748 750 752 750 752 753 753 756 753 751 756 754 749 750 748 743 745 744 748 756 755 750 755 764 774 776 762 746 734 722 717 717 721 731 734 729 733 740 739 746 753 750 758 770 770 784 804 790 759 745 744 742 741 745 747 745 745 744 741 740 741 742 745 749
761 753 747 750 751 752 765 775 769 763 759 753 753 754 752 750 750 751 751 751 749 748 752 753 749 752 753 750 751 754 757 763 761 753 752 755 752 746 742 744 748 748 751 760 760 759 767 772 777 787 786 774 765 755 745 739 739 745 743 733 732 734 733 737 740 744 762 774 772 788 805 788 759 747 745 742 741 748 749 742 740 740 739 741 742 743 745 748
758 753 749 748 748 752 761 762 761 763 760 759 762 760 756 755 753 752 753 753 750 749 755 755 750 751 750 750 754 753 753 761 764 758 754 754 751 743 742 746 749 748 751 756 755 757 769 773 774 790 802 803 803 794 777 764 756 751 747 739 735 735 736 742 746 755 773 777 772 781 790 777 756 748 750 749 746 750 749 742 740 739 737 739 742 745 747 747
763 763 759 753 748 750 753 748 750 757 758 762 766 761 760 760 756 751 752 755 753 751 755 754 751 754 755 756 762 760 754 755 758 760 760 759 753 745 743 746 746 747 751 754 753 756 767 770 768 779 788 788 791 781 763 759 761 759 753 745 742 740 737 740 750 762 771 773 774 773 771 768 760 752 753 753 750 751 749 744 744 743 739 740 742 744 744 743
765 766 763 762 760 756 753 750 749 754 756 761 767 766 764 763 761 757 755 756 756 753 756 755 754 761 765 764 769 769 762 758 759 761 761 760 754 746 743 743 744 747 750 752 751 756 770 774 767 768 769 764 762 757 749 752 757 757 759 757 751 742 739 743 751 757 761 770 777 767 758 765 762 750 750 751 747 750 750 746 747 745 740 739 740 741 743 744
764 764 755 758 766 766 763 760 756 756 757 760 765 767 767 766 766 766 762 758 756 755 761 763 760 763 765 766 774 777 771 769 769 767 764 762 759 757 754 749 746 746 748 750 747 750 767 776 767 765 765 757 751 748 747 751 752 748 752 755 749 743 744 747 744 744 754 766 769 759 753 759 757 748 748 747 745 748 748 745 744 741 738 739 739 741 743 745
765 766 756 754 764 768 766 764 761 762 764 766 769 769 770 771 770 768 765 766 765 760 765 772 769 766 766 766 773 779 777 778 780 775 771 771 770 770 770 764 753 744 745 751 748 748 766 776 767 766 769 762 754 749 746 749 751 748 746 745 742 739 740 740 737 738 747 757 757 755 756 757 752 748 746 742 741 742 741 741 741 739 741 741 741 742 742 743
774 776 771 766 767 767 765 763 765 767 767 770 775 773 769 773 776 772 768 773 778 772 770 777 775 771 772 769 772 778 775 776 783 780 777 780 779 775 775 772 762 752 751 757 755 753 767 775 765 764 773 769 758 753 749 748 750 750 748 742 738 738 738 739 741 742 748 756 757 759 764 761 749 743 742 740 739 739 741 743 742 740 741 741 741 741 740 741
778 775 775 778 777 772 771 769 767 771 772 772 777 777 775 777 778 777 773 770 775 778 776 780 779 776 775 772 773 779 776 774 780 777 774 779 779 775 774 770 766 767 765 764 763 761 768 774 767 768 781 776 761 755 752 746 747 752 750 743 740 742 743 743 746 750 754 759 762 766 774 771 756 747 746 744 740 742 745 746 744 742 741 741 742 741 738 739
782 777 773 779 782 776 773 770 767 774 780 778 777 778 780 779 776 778 781 774 770 773 776 778 780 780 780 779 780 781 776 773 775 772 769 771 769 768 769 765 763 769 770 769 769 767 770 776 775 777 786 780 763 758 754 751 762 766 751 740 741 743 745 749 754 757 755 757 766 775 777 770 759 755 755 751 747 748 748 745 744 745 744 741 741 741 739 738